Location: *
(55.5817°S, 142.4781°W)
Time: 07:33:38
(UTC+00:00)

Orbus 7S? - Pass Details

Date: 29 April 2025
Orbit: 358 x 6185 km, 56.9° (Epoch: 29 April)

Event Time Altitude Azimuth Distance (km) Brightness Sun altitude
Exits shadow 15:03:14 20° 264° (W) 2,890 6.3 -15.4°
Maximum altitude 15:09:05 79° 178° (S) 906 4.3 -14.6°
Drops below altitude 10° 15:13:05 10° 91° (E) 1,904 7.5 -14.0°
Sets 15:14:40 0° 89° (E) 2,583 8.7 -13.8°
